Weather History for Fort Myers, FL

Change the Weather History Date:

Monday, May 12, 2014

  Actual Average Record
Temperature  
Mean Temperature 82 °F 78 °F  
Max Temperature 93 °F 89 °F 97 °F (2011)
Min Temperature 70 °F 68 °F 51 °F (1928)
Degree Days  
Heating Degree Days 0 0  
Month to date heating degree days 0 0  
Since 1 July heating degree days 178 287  
Cooling Degree Days 17 13  
Month to date cooling degree days 177 147  
Year to date cooling degree days 904 777  
Growing Degree Days 31 (Base 50)    
Moisture  
Dew Point 65 °F    
Average Humidity 62    
Maximum Humidity 84    
Minimum Humidity 41    
Precipitation  
Precipitation 0.00 in 0.06 in 1.08 in (1997)
Month to date precipitation 0.54 0.71  
Year to date precipitation 8.10 9.86  
Sea Level Pressure  
Sea Level Pressure 30.07 in    
Wind  
Wind Speed 10 mph (East)    
Max Wind Speed 21 mph    
Max Gust Speed 28 mph    
Visibility 10 miles    
Events      
T = Trace of Precipitation, MM = Missing Value Source: NWS Daily Summary

Daily Weather History Graph

Daily Weather History Graph

Search for Another Location

Airport:

Trip Planner

Search our weather history database for the weather conditions in past years. The results will help you decide how hot, cold, wet, or windy it might be!

Date:

Astronomy

May. 12, 2014 Rise Set
Actual Time 6:42 AM EDT 8:05 PM EDT
Civil Twilight 6:17 AM EDT 8:30 PM EDT
Nautical Twilight 5:47 AM EDT 9:00 PM EDT
Astronomical Twilight 5:16 AM EDT 9:31 PM EDT
Moon 6:13 PM EDT (5/12) 5:06 AM EDT (5/12)
Length of Visible Light 14h 13m
Length of Day
13h 23m
Waxing Gibbous, 95% of the Moon is Illuminated
May 12
Waxing Gibbous
May 14
Full
May 21
Last Quarter
May 28
New
Jun 5
First Quarter

Hourly Weather History & Observations

Time (EDT) Temp. Heat Index Dew Point Humidity Pressure Visibility Wind Dir Wind Speed Gust Speed Precip Events Conditions
12:53 AM 73.9 °F - 63.0 °F 68% 30.11 in 10.0 mi ESE 9.2 mph - N/A   Clear
1:53 AM 73.0 °F - 64.0 °F 73% 30.09 in 10.0 mi East 6.9 mph - N/A   Clear
2:53 AM 73.0 °F - 64.9 °F 76% 30.08 in 10.0 mi East 3.5 mph - N/A   Clear
3:53 AM 72.0 °F - 64.9 °F 78% 30.07 in 10.0 mi East 4.6 mph - N/A   Clear
4:53 AM 71.1 °F - 66.0 °F 84% 30.06 in 10.0 mi East 5.8 mph - N/A   Clear
5:53 AM 71.1 °F - 66.0 °F 84% 30.06 in 10.0 mi East 5.8 mph - N/A   Clear
6:53 AM 71.1 °F - 66.9 °F 87% 30.07 in 10.0 mi East 5.8 mph - N/A   Clear
7:53 AM 72.0 °F - 66.9 °F 84% 30.10 in 10.0 mi East 5.8 mph - N/A   Clear
8:53 AM 77.0 °F - 66.9 °F 71% 30.11 in 10.0 mi East 9.2 mph - N/A   Clear
10:53 AM 82.9 °F 85.8 °F 68.0 °F 60% 30.12 in 10.0 mi East 10.4 mph - N/A   Scattered Clouds
11:53 AM 87.1 °F 89.9 °F 66.9 °F 51% 30.11 in 10.0 mi East 15.0 mph 19.6 mph N/A   Scattered Clouds
12:53 PM 88.0 °F 90.3 °F 66.0 °F 48% 30.09 in 10.0 mi East 12.7 mph - N/A   Scattered Clouds
1:53 PM 88.0 °F 90.3 °F 66.0 °F 48% 30.08 in 10.0 mi East 15.0 mph - N/A   Mostly Cloudy
2:53 PM 90.0 °F 91.7 °F 64.9 °F 43% 30.06 in 10.0 mi East 15.0 mph - N/A   Partly Cloudy
3:53 PM 91.9 °F 93.3 °F 64.0 °F 39% 30.04 in 10.0 mi East 12.7 mph 25.3 mph N/A   Partly Cloudy
4:53 PM 88.0 °F 88.7 °F 63.0 °F 43% 30.04 in 10.0 mi East 15.0 mph - N/A   Clear
5:53 PM 89.1 °F 90.0 °F 63.0 °F 42% 30.03 in 10.0 mi East 16.1 mph 21.9 mph N/A   Partly Cloudy
6:53 PM 86.0 °F 86.8 °F 63.0 °F 46% 30.04 in 10.0 mi East 12.7 mph 20.7 mph N/A   Partly Cloudy
7:53 PM 84.0 °F 85.4 °F 64.0 °F 51% 30.04 in 10.0 mi East 13.8 mph 19.6 mph N/A   Clear
8:53 PM 81.0 °F 82.5 °F 64.0 °F 56% 30.05 in 10.0 mi East 11.5 mph - N/A   Clear
9:53 PM 79.0 °F - 64.9 °F 62% 30.06 in 10.0 mi East 13.8 mph - N/A   Clear
11:53 PM 75.9 °F - 68.0 °F 76% 30.07 in 10.0 mi East 8.1 mph - N/A   Clear